TimeCST,TemperatureF,Dew PointF,Humidity,Sea Level PressureIn,VisibilityMPH,Wind Direction,Wind SpeedMPH,Gust SpeedMPH,PrecipitationIn,Events,Conditions,WindDirDegrees,DateUTC
12:14 AM,39.2,30.2,70,29.14,10.0,SSW,4.6,-,N/A,,Clear,210,2011-11-13 06:14:00
12:33 AM,41.0,30.2,65,29.14,10.0,WSW,5.8,-,N/A,,Clear,240,2011-11-13 06:33:00
12:54 AM,41.0,30.2,65,29.15,10.0,SW,4.6,-,N/A,,Clear,230,2011-11-13 06:54:00
1:14 AM,39.2,28.4,65,29.16,10.0,SW,5.8,-,N/A,,Clear,220,2011-11-13 07:14:00
1:34 AM,37.4,26.6,65,29.16,10.0,West,8.1,-,N/A,,Clear,260,2011-11-13 07:34:00
1:53 AM,39.2,23.0,52,29.17,10.0,West,11.5,17.3,N/A,,Clear,280,2011-11-13 07:53:00
2:13 AM,37.4,23.0,56,29.17,10.0,WNW,10.4,-,N/A,,Clear,290,2011-11-13 08:13:00
2:34 AM,35.6,21.2,56,29.17,10.0,WNW,9.2,-,N/A,,Clear,290,2011-11-13 08:34:00
2:54 AM,35.6,21.2,56,29.18,10.0,West,9.2,-,N/A,,Clear,280,2011-11-13 08:54:00
3:14 AM,33.8,23.0,65,29.19,10.0,West,10.4,-,N/A,,Clear,270,2011-11-13 09:14:00
3:34 AM,35.6,23.0,60,29.19,10.0,West,11.5,-,N/A,,Clear,270,2011-11-13 09:34:00
3:54 AM,35.6,21.2,56,29.19,10.0,West,8.1,-,N/A,,Clear,280,2011-11-13 09:54:00
4:13 AM,33.8,21.2,60,29.19,10.0,West,8.1,-,N/A,,Scattered Clouds,280,2011-11-13 10:13:00
4:34 AM,35.6,23.0,60,29.20,10.0,WNW,10.4,-,N/A,,Overcast,290,2011-11-13 10:34:00
4:53 AM,35.6,23.0,60,29.19,10.0,WNW,12.7,-,N/A,,Overcast,300,2011-11-13 10:53:00
5:33 AM,35.6,24.8,65,29.20,10.0,WNW,11.5,-,N/A,,Scattered Clouds,290,2011-11-13 11:33:00
5:54 AM,35.6,24.8,65,29.21,10.0,WNW,13.8,-,N/A,,Clear,300,2011-11-13 11:54:00
6:34 AM,33.8,26.6,75,29.21,10.0,NW,11.5,-,N/A,,Scattered Clouds,310,2011-11-13 12:34:00
6:54 AM,33.8,26.6,75,29.22,10.0,WNW,8.1,-,N/A,,Clear,290,2011-11-13 12:54:00
7:13 AM,32.0,24.8,75,29.23,10.0,West,6.9,-,N/A,,Clear,280,2011-11-13 13:13:00
7:34 AM,30.2,24.8,80,29.23,10.0,West,9.2,-,N/A,,Clear,280,2011-11-13 13:34:00
7:54 AM,30.2,24.8,80,29.24,10.0,WNW,13.8,-,N/A,,Clear,290,2011-11-13 13:54:00
8:14 AM,30.2,26.6,86,29.25,7.0,WNW,17.3,-,N/A,,Scattered Clouds,290,2011-11-13 14:14:00
8:33 AM,30.2,26.6,86,29.27,5.0,WNW,18.4,25.3,N/A,,Mostly Cloudy,300,2011-11-13 14:33:00
8:54 AM,32.0,28.4,87,29.28,5.0,WNW,20.7,25.3,N/A,,Overcast,300,2011-11-13 14:54:00
9:13 AM,33.8,28.4,81,29.28,7.0,WNW,16.1,24.2,N/A,,Overcast,300,2011-11-13 15:13:00
9:34 AM,33.8,28.4,81,29.28,10.0,WNW,20.7,25.3,N/A,,Overcast,300,2011-11-13 15:34:00
9:54 AM,33.8,28.4,81,29.29,7.0,WNW,13.8,-,N/A,,Overcast,300,2011-11-13 15:54:00
10:14 AM,33.8,28.4,81,29.30,10.0,WNW,17.3,20.7,N/A,,Overcast,300,2011-11-13 16:14:00
10:34 AM,33.8,26.6,75,29.31,10.0,West,15.0,-,N/A,,Overcast,280,2011-11-13 16:34:00
10:54 AM,33.8,26.6,75,29.31,7.0,WNW,16.1,-,N/A,,Overcast,300,2011-11-13 16:54:00
11:13 AM,33.8,26.6,75,29.31,7.0,West,13.8,-,N/A,,Overcast,280,2011-11-13 17:13:00
11:34 AM,35.6,26.6,70,29.31,7.0,WNW,15.0,-,N/A,,Overcast,290,2011-11-13 17:34:00
11:53 AM,35.6,26.6,70,29.30,7.0,West,11.5,-,N/A,,Overcast,280,2011-11-13 17:53:00
12:14 PM,35.6,26.6,70,29.31,10.0,West,11.5,-,N/A,,Overcast,270,2011-11-13 18:14:00
12:34 PM,35.6,26.6,70,29.31,10.0,West,12.7,-,N/A,,Overcast,270,2011-11-13 18:34:00
12:54 PM,37.4,26.6,65,29.31,10.0,West,12.7,18.4,N/A,,Overcast,270,2011-11-13 18:54:00
1:13 PM,37.4,26.6,65,29.31,10.0,West,16.1,-,N/A,,Overcast,270,2011-11-13 19:13:00
1:34 PM,37.4,26.6,65,29.31,10.0,West,15.0,-,N/A,,Overcast,260,2011-11-13 19:34:00
1:54 PM,37.4,28.4,70,29.32,10.0,West,12.7,-,N/A,,Overcast,270,2011-11-13 19:54:00
2:14 PM,39.2,28.4,65,29.33,10.0,West,12.7,-,N/A,,Overcast,260,2011-11-13 20:14:00
2:34 PM,39.2,28.4,65,29.31,10.0,West,10.4,-,N/A,,Scattered Clouds,270,2011-11-13 20:34:00
2:53 PM,39.2,28.4,65,29.32,10.0,West,9.2,-,N/A,,Mostly Cloudy,270,2011-11-13 20:53:00
3:14 PM,39.2,28.4,65,29.32,10.0,West,12.7,-,N/A,,Mostly Cloudy,260,2011-11-13 21:14:00
3:34 PM,41.0,28.4,61,29.33,10.0,West,10.4,-,N/A,,Mostly Cloudy,260,2011-11-13 21:34:00
3:54 PM,41.0,28.4,61,29.33,10.0,WSW,9.2,-,N/A,,Scattered Clouds,250,2011-11-13 21:54:00
4:14 PM,39.2,28.4,65,29.34,10.0,SW,6.9,-,N/A,,Clear,230,2011-11-13 22:14:00
4:34 PM,39.2,28.4,65,29.35,10.0,WSW,6.9,-,N/A,,Clear,240,2011-11-13 22:34:00
4:53 PM,37.4,28.4,70,29.35,10.0,SW,4.6,-,N/A,,Clear,230,2011-11-13 22:53:00
5:14 PM,37.4,28.4,70,29.35,10.0,Calm,Calm,-,N/A,,Scattered Clouds,0,2011-11-13 23:14:00
5:33 PM,37.4,28.4,70,29.36,10.0,Calm,Calm,-,N/A,,Scattered Clouds,0,2011-11-13 23:33:00
5:54 PM,35.6,26.6,70,29.37,10.0,SSE,3.5,-,N/A,,Clear,160,2011-11-13 23:54:00
6:14 PM,37.4,28.4,70,29.36,10.0,SSE,3.5,-,N/A,,Clear,160,2011-11-14 00:14:00
6:34 PM,35.6,28.4,75,29.37,10.0,SSE,4.6,-,N/A,,Clear,150,2011-11-14 00:34:00
6:53 PM,35.6,26.6,70,29.37,10.0,SE,3.5,-,N/A,,Clear,140,2011-11-14 00:53:00
7:14 PM,33.8,26.6,75,29.37,10.0,SSE,5.8,-,N/A,,Clear,150,2011-11-14 01:14:00
7:34 PM,32.0,26.6,80,29.38,10.0,South,4.6,-,N/A,,Clear,170,2011-11-14 01:34:00
7:54 PM,30.2,26.6,86,29.37,10.0,South,3.5,-,N/A,,Clear,190,2011-11-14 01:54:00
8:14 PM,30.2,26.6,86,29.37,10.0,Calm,Calm,-,N/A,,Clear,0,2011-11-14 02:14:00
8:54 PM,30.2,24.8,80,29.38,10.0,SSW,5.8,-,N/A,,Clear,210,2011-11-14 02:54:00
9:13 PM,30.2,24.8,80,29.39,10.0,SSW,6.9,-,N/A,,Clear,200,2011-11-14 03:13:00
9:34 PM,28.4,23.0,80,29.39,10.0,SSW,9.2,-,N/A,,Clear,210,2011-11-14 03:34:00
9:54 PM,30.2,23.0,75,29.39,10.0,SW,5.8,-,N/A,,Clear,220,2011-11-14 03:54:00
10:14 PM,30.2,23.0,75,29.39,10.0,SSW,4.6,-,N/A,,Clear,200,2011-11-14 04:14:00
10:34 PM,30.2,21.2,69,29.40,10.0,SSW,4.6,-,N/A,,Clear,210,2011-11-14 04:34:00
10:54 PM,28.4,21.2,74,29.40,10.0,SSW,5.8,-,N/A,,Clear,200,2011-11-14 04:54:00
11:14 PM,28.4,21.2,74,29.40,10.0,SSW,3.5,-,N/A,,Clear,210,2011-11-14 05:14:00
11:34 PM,28.4,21.2,74,29.40,10.0,SW,4.6,-,N/A,,Clear,220,2011-11-14 05:34:00
11:54 PM,32.0,23.0,69,29.40,10.0,SSW,4.6,-,N/A,,Scattered Clouds,210,2011-11-14 05:54:00